Theta_e
315 309 308 310 311 313 314 314 314 314 314 314 314 314 313 313 313 313 315 314 319 317 318 318 321 322 322 320 321 319 321 320 321 322 320 321 323 322 322 323 323 323 332 333 343
316 315 310 308 310 312 313 314 314 314 314 314 314 314 313 313 313 314 315 314 319 319 318 317 318 317 319 321 320 319 318 321 319 322 323 322 323 323 323 324 323 322 329 337 343
319 315 314 310 309 311 313 314 314 314 313 314 314 313 313 312 316 319 324 319 318 319 317 316 315 317 319 320 320 320 321 321 322 321 322 323 323 322 322 322 322 321 321 329 331
321 318 314 313 309 310 312 313 314 313 313 314 314 313 312 313 314 321 321 320 318 319 317 316 316 319 319 320 319 322 321 320 320 322 322 323 322 322 321 321 319 321 327 326 326
325 320 317 313 312 310 312 313 314 313 313 314 314 313 313 316 316 314 318 318 318 319 321 318 317 319 320 319 318 320 321 321 321 319 320 321 322 321 321 320 321 325 327 326 325
322 323 320 316 313 311 311 313 314 313 313 314 314 313 314 316 312 316 319 319 320 321 321 322 321 320 319 319 318 320 320 320 320 320 320 323 322 319 320 320 325 326 326 325 325
314 322 322 319 314 312 311 313 314 314 313 314 314 314 313 315 314 319 318 319 319 319 319 321 321 321 320 321 321 321 322 320 321 321 322 321 321 321 319 319 324 325 325 325 325
312 316 322 321 317 313 312 313 314 314 314 314 314 312 314 313 312 313 314 317 319 320 320 322 323 323 321 320 322 323 321 322 323 321 320 321 322 321 318 319 323 323 325 325 328
309 312 314 322 319 315 313 313 314 314 314 314 314 312 315 314 316 312 314 316 319 322 322 323 323 323 323 323 323 322 323 323 322 321 321 321 321 320 318 318 322 322 324 326 326
309 309 312 316 321 316 314 314 314 314 314 314 314 313 314 317 316 316 315 317 320 321 323 323 320 322 321 322 326 323 324 324 324 323 322 322 321 319 321 320 321 322 323 324 324
308 309 309 312 320 317 315 315 313 314 314 315 313 313 314 314 316 319 317 318 318 322 324 322 323 325 325 323 324 324 324 324 323 323 325 323 321 321 320 321 319 321 322 322 322
308 308 309 311 316 318 315 313 312 311 316 314 313 312 311 312 314 316 319 320 322 323 323 324 326 324 323 323 325 325 326 326 325 324 325 326 327 324 323 321 318 321 321 321 320
307 308 308 309 313 317 315 313 310 311 316 317 313 312 313 314 315 316 319 320 323 325 325 327 326 325 325 325 326 326 327 326 326 325 325 326 325 324 324 323 320 322 321 320 319
306 308 308 309 312 316 315 312 313 315 314 314 317 316 312 312 313 315 320 322 322 325 325 325 325 326 326 327 326 328 325 326 326 326 329 324 331 324 323 323 321 321 320 318 317
305 308 308 309 314 317 315 312 310 313 315 311 314 315 314 312 313 314 318 322 324 324 324 326 325 326 326 327 326 327 325 326 327 326 326 326 326 324 323 323 320 320 319 317 315
305 308 308 309 312 316 314 310 313 312 312 312 316 317 316 314 314 317 319 320 321 323 323 324 322 324 326 326 326 326 326 326 325 325 331 327 327 325 321 322 320 319 317 315 313
304 307 308 308 311 315 314 313 317 314 312 314 318 319 318 317 316 319 322 324 326 328 327 325 325 324 324 325 325 326 327 332 331 331 333 328 328 327 323 319 320 318 315 313 313
305 304 307 308 311 316 314 313 318 315 313 317 317 318 318 316 315 319 321 326 323 324 326 328 328 325 324 326 327 327 328 333 335 332 331 326 328 325 319 319 319 316 314 313 309
305 305 307 308 310 315 312 313 317 316 312 316 318 319 319 317 315 315 319 321 323 324 326 327 326 324 325 325 326 327 330 327 328 327 326 325 323 320 319 319 317 315 315 309 306
305 305 307 306 308 314 308 313 316 315 313 315 321 319 320 320 319 315 318 318 321 323 323 325 330 326 325 324 324 326 324 329 332 337 336 326 325 323 320 319 317 317 313 307 305
304 306 306 304 309 314 311 313 314 314 316 314 316 327 321 321 323 317 319 319 317 321 323 324 326 328 326 326 327 324 327 328 328 322 325 327 325 319 320 319 318 316 309 304 302
303 306 305 304 311 314 311 313 314 314 315 319 321 325 325 322 324 323 322 324 320 318 325 324 326 328 328 324 324 325 326 325 330 325 319 318 322 316 318 318 317 310 305 302 301
303 303 304 307 310 309 311 314 315 315 316 320 321 321 320 326 326 324 326 323 319 320 324 325 326 327 329 327 323 328 326 324 320 318 324 330 325 316 316 314 311 307 303 302 300
302 304 303 307 309 306 312 313 316 316 318 320 320 320 321 322 327 329 328 322 317 320 323 324 325 328 330 326 326 326 326 325 326 325 323 321 322 316 315 314 310 304 302 301 299
302 303 305 308 308 306 311 313 315 319 319 319 320 322 323 325 326 327 319 316 315 315 319 324 327 328 325 324 325 327 324 323 326 326 326 324 322 317 314 312 306 303 301 300 298
302 302 304 308 308 306 311 314 316 318 319 322 322 321 322 321 325 325 321 316 317 316 320 318 320 322 325 324 323 325 323 323 321 319 321 320 322 317 314 306 303 302 300 298 297
301 302 306 309 309 309 310 314 314 316 317 319 320 321 321 320 316 315 315 314 315 316 318 317 318 321 328 324 324 326 321 323 323 320 319 320 319 318 311 305 303 299 299 297 298
Wind_Speed
30 29 28 27 24 23 21 18 17 15 14 12 12 12 15 20 24 22 8 10 4 9 3 3 5 7 4 3 4 3 1 3 4 4 6 4 2 5 3 5 2 6 8 10 30
32 30 29 29 26 25 22 20 18 16 15 13 12 12 14 19 24 16 22 14 10 6 8 5 4 4 3 4 1 3 3 5 6 2 4 3 2 4 1 2 3 5 9 17 18
34 33 31 31 28 26 24 22 19 17 15 13 12 12 12 15 6 7 9 15 13 11 8 3 4 2 3 1 4 3 6 4 10 7 3 2 3 2 3 2 4 7 9 10 18
35 34 33 31 30 28 26 23 20 17 15 13 12 12 11 4 5 4 4 8 13 11 9 4 2 3 3 4 4 5 9 5 8 7 5 3 2 2 3 1 4 8 18 11 10
37 36 33 32 30 29 26 24 21 17 15 12 10 10 4 2 9 10 5 7 9 8 7 5 4 3 3 3 5 4 8 6 6 9 7 4 4 6 4 7 10 12 12 11 11
33 38 35 32 31 30 26 24 20 17 15 11 8 6 2 6 10 12 15 11 9 10 5 5 4 4 6 7 4 5 8 9 4 5 5 2 3 7 7 11 11 14 12 9 11
18 38 37 35 31 30 27 23 21 17 14 10 7 4 4 15 8 3 12 12 15 12 3 10 6 2 4 7 3 3 6 9 4 3 4 2 5 6 7 8 12 11 12 11 11
28 13 38 37 33 30 28 22 20 17 13 9 6 3 7 12 15 26 24 21 15 17 15 11 7 3 4 5 7 3 1 4 4 2 5 7 10 11 9 9 11 12 12 12 10
33 28 11 37 35 30 27 21 18 14 11 7 5 4 9 7 11 33 23 17 17 17 12 6 3 3 3 2 4 2 5 8 9 6 4 5 8 13 9 9 13 13 13 13 12
28 31 26 23 34 30 26 21 15 9 9 4 7 2 9 6 12 19 27 22 7 4 2 2 4 2 1 4 10 7 5 4 8 4 2 11 17 12 5 7 18 15 13 14 13
27 27 27 16 36 32 29 15 7 4 9 10 11 7 5 3 10 12 22 15 8 3 7 5 5 12 26 10 4 4 4 6 8 9 9 11 9 12 8 5 8 15 14 13 14
28 30 28 29 29 37 38 9 12 6 5 22 17 19 32 12 5 6 18 11 10 17 6 3 13 25 5 7 11 8 10 15 13 13 9 8 7 8 4 7 12 18 14 16 15
29 30 24 22 19 43 39 25 20 12 4 6 19 19 9 10 8 6 17 8 10 11 14 18 12 12 9 10 11 14 15 14 10 13 8 1 6 7 6 4 10 18 16 15 18
32 31 24 18 16 35 35 39 11 10 4 7 10 10 13 6 10 15 16 16 7 20 15 12 17 12 13 15 15 14 14 13 8 5 7 7 7 7 5 6 7 16 18 18 18
35 32 23 22 6 20 27 44 25 3 5 9 12 19 20 21 12 18 21 11 14 11 11 10 13 20 20 21 17 12 13 10 9 4 1 4 3 7 7 8 8 15 18 17 16
35 31 25 24 25 22 36 50 13 5 14 7 13 16 15 19 12 11 13 3 2 8 8 15 8 14 18 20 16 13 4 0 2 2 10 8 7 4 6 9 5 9 14 16 15
38 33 28 28 20 27 38 14 9 11 10 10 12 18 19 16 18 16 24 21 14 15 19 17 20 11 3 6 6 8 7 4 3 4 10 7 8 11 6 8 15 20 17 17 15
41 36 34 36 31 36 29 12 11 20 23 2 16 22 18 16 22 21 25 24 24 9 7 16 10 22 10 16 12 11 16 7 7 5 6 8 6 6 7 8 16 17 18 13 11
40 36 34 35 33 44 18 20 14 11 33 4 22 23 14 16 13 21 22 24 25 26 15 10 15 4 18 15 17 6 14 13 5 2 2 4 4 4 6 13 19 19 18 14 14
35 24 28 36 43 32 19 17 14 5 22 9 14 14 18 23 11 21 22 15 17 29 17 6 1 9 14 20 16 16 6 7 2 6 7 5 5 5 8 14 17 20 17 15 12
23 7 17 46 34 10 20 17 15 9 5 23 11 5 12 17 15 18 14 8 26 20 24 17 4 4 9 13 22 6 13 7 8 6 5 2 6 7 19 22 23 18 17 17 15
10 11 25 43 13 7 14 19 12 21 7 4 1 5 9 17 18 16 19 11 13 27 20 21 13 14 14 3 19 24 14 9 7 5 4 4 5 4 15 17 17 17 16 12 12
9 7 23 36 13 7 13 16 20 16 10 9 3 7 9 7 8 21 10 7 6 20 15 14 8 2 11 16 4 24 19 14 6 4 9 10 6 4 14 13 14 18 13 11 10
5 7 4 12 11 7 18 20 15 11 17 6 3 1 10 17 3 5 8 1 4 6 17 19 7 17 14 6 8 14 18 19 20 10 6 7 4 5 11 16 14 14 13 11 10
4 5 5 12 17 9 21 18 26 7 5 20 9 10 8 13 6 9 3 3 4 4 4 13 16 12 8 1 14 18 12 18 22 22 18 13 10 14 15 15 16 16 12 11 11
7 4 2 6 22 13 22 23 28 16 12 18 16 21 7 5 14 6 7 4 3 4 3 1 2 4 8 5 9 2 6 14 6 5 12 7 13 18 16 13 14 16 14 14 11
4 4 3 5 19 20 13 20 31 23 10 11 19 17 10 4 6 6 8 8 4 5 2 4 5 3 10 4 3 10 9 8 4 5 8 11 6 14 15 19 18 12 15 12 13
Wind_Direction
250 245 242 242 239 239 242 245 253 261 267 276 289 304 314 317 312 314 252 241 223 219 218 253 271 277 298 276 178 125 69 265 259 1 298 293 83 324 166 98 129 181 161 178 161
253 248 244 241 241 239 239 241 248 256 268 276 289 304 318 325 321 283 273 249 222 233 217 219 258 3 321 275 6 122 156 242 208 265 298 309 160 187 50 17 312 64 43 116 135
252 250 246 242 239 239 239 240 241 251 261 278 290 302 319 330 322 253 298 220 210 218 216 237 282 76 240 226 254 205 218 231 277 260 265 257 297 239 107 278 242 137 106 107 112
250 249 245 244 239 238 238 239 239 245 256 269 289 303 320 333 247 345 347 165 214 227 225 194 201 174 223 246 262 260 269 223 278 257 217 213 196 120 153 246 149 103 122 113 112
249 247 244 242 241 237 236 237 240 239 250 261 281 309 327 219 246 276 246 177 192 181 187 177 163 192 230 240 321 225 270 272 259 289 243 191 205 216 212 143 118 116 116 125 123
253 246 243 240 240 237 234 235 236 238 244 259 279 308 259 249 256 248 248 196 193 195 192 177 214 224 270 257 183 261 283 273 267 282 273 276 259 148 225 146 135 127 130 126 112
298 245 242 239 234 235 231 229 231 235 239 248 271 296 249 236 241 190 201 221 221 220 224 253 262 148 302 312 259 265 317 312 268 236 246 38 295 222 224 138 149 137 131 122 114
276 246 245 238 232 229 228 222 226 229 235 241 258 261 245 259 262 267 252 253 247 247 243 290 278 234 185 241 339 7 330 299 307 295 252 137 260 259 237 156 158 142 139 125 118
271 267 283 240 232 222 219 213 219 223 228 234 253 200 264 272 234 240 233 221 250 238 243 266 55 231 319 114 342 343 236 269 306 222 231 161 267 256 231 179 174 151 148 135 123
264 266 258 248 229 218 207 199 196 212 222 227 251 307 254 229 222 231 224 211 196 216 282 141 58 239 339 123 226 211 221 239 244 279 35 266 245 250 238 200 187 152 148 138 131
254 261 261 274 230 210 179 146 111 247 222 199 184 223 285 202 249 217 205 179 191 174 189 184 139 220 227 202 246 206 226 235 263 281 310 278 247 230 210 159 127 153 153 144 135
253 251 260 246 229 202 183 191 176 144 232 226 245 232 268 315 311 286 187 167 175 204 153 161 208 229 94 200 230 231 241 257 280 272 255 245 251 258 231 205 164 159 158 149 139
243 245 244 263 248 190 187 197 200 254 261 217 218 223 222 180 208 255 178 168 183 187 197 208 209 227 208 226 226 235 230 245 240 278 259 212 301 287 289 213 132 171 161 145 143
237 241 239 240 231 190 188 186 141 102 284 255 196 221 209 201 256 223 203 176 197 203 205 234 229 239 213 229 215 237 231 243 247 256 245 188 254 254 249 257 154 162 160 155 152
233 232 229 211 200 199 180 189 196 102 247 187 190 176 174 188 125 212 203 196 193 181 180 205 199 214 227 217 216 227 240 226 247 216 192 229 204 251 187 231 169 173 164 159 152
228 226 213 215 223 215 185 181 166 146 230 227 153 167 156 199 193 165 175 201 212 210 238 210 236 207 214 227 223 220 213 264 9 146 248 232 198 235 200 200 145 161 164 154 152
222 217 212 209 208 215 181 166 152 209 134 204 169 167 168 179 194 184 185 194 190 197 213 227 234 240 205 216 217 194 181 232 267 228 244 209 239 235 235 189 170 168 162 156 157
217 215 214 213 210 197 172 184 181 216 214 85 151 169 184 153 200 185 187 203 206 202 181 213 229 219 201 205 211 214 200 161 202 218 248 200 230 233 263 204 161 154 146 133 123
213 209 206 214 211 179 161 193 205 186 195 232 149 168 187 183 170 189 204 208 198 196 204 195 230 211 210 219 201 206 214 179 212 237 63 233 286 359 54 130 141 142 137 133 128
195 202 214 206 212 183 167 198 223 203 185 207 169 177 187 179 161 189 188 203 204 205 199 209 245 202 208 213 224 207 170 170 116 198 235 255 232 202 143 142 148 151 142 137 135
184 207 211 194 213 190 180 206 210 249 201 211 208 166 184 179 178 189 198 208 195 196 202 215 131 279 203 200 206 189 199 188 164 164 190 203 248 185 170 164 162 159 146 146 147
183 210 174 179 207 194 192 197 195 217 261 243 313 179 178 179 192 188 205 186 195 203 196 203 217 227 224 240 211 217 205 162 195 225 220 154 257 306 168 170 160 148 148 146 140
187 194 179 179 204 204 185 211 192 193 220 183 245 197 225 186 194 214 205 158 124 184 182 173 220 170 230 256 212 213 204 191 117 114 203 211 237 46 143 148 155 147 151 147 138
146 173 228 201 200 188 176 198 200 218 199 180 221 310 215 227 191 187 213 154 131 176 197 175 184 206 216 239 181 201 208 197 195 215 186 208 160 166 175 161 149 150 154 151 145
160 187 219 184 199 191 194 185 195 167 224 187 207 229 196 193 165 200 131 127 54 345 86 191 215 199 199 321 200 203 200 197 206 214 212 213 201 187 184 172 164 158 154 139 133
166 177 174 160 189 182 193 192 190 186 170 191 212 210 221 172 198 171 134 175 163 67 123 23 190 116 184 131 55 15 219 219 183 167 215 174 224 175 177 138 155 162 150 145 144
146 183 181 200 181 191 195 186 195 181 187 199 194 186 203 161 104 81 79 89 96 129 191 102 120 126 200 119 42 278 200 191 178 172 173 198 192 173 160 160 169 155 150 141 130